Weather History for KGNC - November, 2012

Change the Weather History Date:

Friday, November 9, 2012

  Actual Average (KHOB) Record (KHOB)
Temperature  
Mean Temperature 67 °F -  
Max Temperature 82 °F 63 °F 86 °F (2006)
Min Temperature 52 °F 39 °F 23 °F (1948)
Cooling Degree Days 2    
Growing Degree Days 17 (Base 50)    
Moisture  
Dew Point 45 °F    
Average Humidity 50    
Maximum Humidity 88    
Minimum Humidity 18    
Precipitation  
Precipitation 0.00 in - - ()
Sea Level Pressure  
Sea Level Pressure 29.94 in    
Wind  
Wind Speed 12 mph (SSW)    
Max Wind Speed 24 mph    
Max Gust Speed 29 mph    
Visibility 10 miles    
Events      
Averages and records for this station are not official NWS values.
T = Trace of Precipitation, MM = Missing Value Source: NWS Daily Summary

Daily Weather History Graph

Daily Weather History Graph

Search for Another Location

Airport or City:

Trip Planner

Search our weather history database for the weather conditions in past years. The results will help you decide how hot, cold, wet, or windy it might be!

Date:

Astronomy

Nov. 09, 2012 Rise Set
Actual Time 7:15 AM CST 5:52 PM CST
Civil Twilight 6:49 AM CST 6:18 PM CST
Nautical Twilight 6:20 AM CST 6:48 PM CST
Astronomical Twilight 5:51 AM CST 7:17 PM CST
Moon 2:31 AM CST (11/9) 2:54 PM CST (11/9)
Length of Visible Light 11h 28m
Length of Day
10h 37m
Waning Crescent, 23% of the Moon is Illuminated
Nov 9
Waning Crescent
Nov 13
New
Nov 20
First Quarter
Nov 28
Full
Dec 6
Last Quarter

Hourly Weather History & Observations

Time (CST) Temp. Dew Point Humidity Pressure Visibility Wind Dir Wind Speed Gust Speed Precip Events Conditions
12:15 AM 64.2 °F 51.1 °F 62% 29.97 in 10.0 mi South 13.8 mph - N/A   Clear
12:35 AM 63.9 °F 51.3 °F 64% 29.96 in 10.0 mi South 13.8 mph 20.7 mph N/A   Clear
12:55 AM 63.9 °F 51.3 °F 64% 29.96 in 10.0 mi South 13.8 mph 21.9 mph N/A   Clear
1:15 AM 63.5 °F 51.4 °F 65% 29.96 in 10.0 mi SSW 12.7 mph - N/A   Clear
1:35 AM 63.0 °F 51.6 °F 66% 29.96 in 10.0 mi SSW 13.8 mph - N/A   Clear
1:55 AM 62.8 °F 51.8 °F 67% 29.96 in 10.0 mi SSW 13.8 mph 21.9 mph N/A   Clear
2:15 AM 62.6 °F 51.6 °F 67% 29.96 in 10.0 mi SSW 13.8 mph - N/A   Clear
2:35 AM 61.9 °F 51.4 °F 69% 29.96 in 10.0 mi SSW 10.4 mph 16.1 mph N/A   Clear
2:55 AM 60.8 °F 51.3 °F 71% 29.96 in 10.0 mi SSW 10.4 mph - N/A   Clear
3:15 AM 60.1 °F 51.1 °F 72% 29.96 in 10.0 mi SSW 10.4 mph - N/A   Clear
3:35 AM 59.4 °F 50.9 °F 74% 29.96 in 10.0 mi SSW 9.2 mph - N/A   Clear
3:55 AM 58.8 °F 50.9 °F 75% 29.96 in 10.0 mi SW 9.2 mph - N/A   Clear
4:15 AM 58.3 °F 50.5 °F 75% 29.96 in 10.0 mi SSW 6.9 mph - N/A   Clear
4:35 AM 57.4 °F 50.2 °F 77% 29.96 in 10.0 mi SW 6.9 mph - N/A   Clear
4:55 AM 56.1 °F 50.0 °F 80% 29.96 in 10.0 mi SW 5.8 mph - N/A   Clear
5:15 AM 55.2 °F 49.6 °F 81% 29.96 in 10.0 mi SW 8.1 mph - N/A   Clear
5:55 AM 53.4 °F 48.7 °F 84% 29.96 in 10.0 mi SW 6.9 mph - N/A   Clear
6:15 AM 52.9 °F 48.7 °F 86% 29.97 in 10.0 mi SW 5.8 mph - N/A   Clear
6:35 AM 52.7 °F 48.7 °F 86% 29.97 in 10.0 mi SW 6.9 mph - N/A   Clear
6:55 AM 52.3 °F 48.7 °F 88% 29.97 in 10.0 mi SW 5.8 mph - N/A   Clear
7:15 AM 52.3 °F 48.9 °F 88% 29.98 in 10.0 mi SSW 6.9 mph - N/A   Clear
7:35 AM 52.9 °F 49.3 °F 88% 29.98 in 10.0 mi SSW 5.8 mph - N/A   Clear
7:55 AM 52.7 °F 49.3 °F 88% 29.99 in 10.0 mi SSW 5.8 mph - N/A   Clear
8:15 AM 54.7 °F 50.0 °F 84% 29.99 in 10.0 mi SSW 5.8 mph - N/A   Clear
8:55 AM 59.0 °F 50.2 °F 73% 30.00 in 10.0 mi SSW 6.9 mph - N/A   Clear
9:15 AM 62.4 °F 48.0 °F 59% 30.00 in 10.0 mi SW 8.1 mph - N/A   Clear
9:35 AM 65.8 °F 46.0 °F 49% 30.00 in 10.0 mi SW 11.5 mph 16.1 mph N/A   Clear
9:55 AM 67.6 °F 44.2 °F 43% 30.00 in 10.0 mi SW 12.7 mph - N/A   Clear
10:15 AM 70.3 °F 42.4 °F 36% 30.00 in 10.0 mi SW 11.5 mph - N/A   Clear
10:35 AM 73.0 °F 40.5 °F 31% 30.00 in 10.0 mi SW 12.7 mph - N/A   Clear
10:55 AM 75.0 °F 39.4 °F 28% 30.00 in 10.0 mi WSW 13.8 mph 21.9 mph N/A   Clear
11:15 AM 75.7 °F 39.0 °F 27% 30.00 in 10.0 mi WSW 16.1 mph 25.3 mph N/A   Clear
11:35 AM 76.3 °F 39.0 °F 26% 29.99 in 10.0 mi WSW 15.0 mph 25.3 mph N/A   Clear
11:55 AM 76.8 °F 39.4 °F 26% 29.98 in 10.0 mi WSW 17.3 mph - N/A   Clear
12:15 PM 77.9 °F 39.6 °F 25% 29.97 in 10.0 mi SW 17.3 mph 20.7 mph N/A   Clear
12:35 PM 79.3 °F 38.5 °F 23% 29.96 in 10.0 mi WSW 15.0 mph 21.9 mph N/A   Clear
12:55 PM 80.2 °F 36.9 °F 21% 29.94 in 10.0 mi WSW 17.3 mph 21.9 mph N/A   Clear
1:15 PM 81.0 °F 36.0 °F 20% 29.93 in 10.0 mi WSW 16.1 mph - N/A   Clear
1:35 PM 81.9 °F 36.0 °F 19% 29.92 in 10.0 mi WSW 24.2 mph 28.8 mph N/A   Clear
1:55 PM 82.0 °F 36.1 °F 19% 29.91 in 10.0 mi SSW 11.5 mph - N/A   Clear
2:15 PM 82.0 °F 37.8 °F 21% 29.91 in 10.0 mi SSW 16.1 mph 25.3 mph N/A   Clear
2:35 PM 81.7 °F 37.6 °F 21% 29.91 in 10.0 mi SSW 18.4 mph 24.2 mph N/A   Clear
2:55 PM 81.3 °F 37.2 °F 21% 29.90 in 10.0 mi SSW 15.0 mph 21.9 mph N/A   Clear
3:15 PM 81.5 °F 36.5 °F 20% 29.90 in 10.0 mi SW 15.0 mph 26.5 mph N/A   Clear
3:35 PM 81.9 °F 36.0 °F 19% 29.89 in 10.0 mi SW 15.0 mph 21.9 mph N/A   Clear
3:55 PM 81.7 °F 36.0 °F 19% 29.89 in 10.0 mi SW 15.0 mph 21.9 mph N/A   Clear
4:15 PM 81.1 °F 35.8 °F 20% 29.89 in 10.0 mi SSW 16.1 mph - N/A   Clear
4:35 PM 81.1 °F 34.7 °F 19% 29.88 in 10.0 mi SSW 15.0 mph - N/A   Clear
4:55 PM 80.4 °F 33.6 °F 18% 29.89 in 10.0 mi SSW 15.0 mph 21.9 mph N/A   Clear
5:15 PM 79.7 °F 33.8 °F 19% 29.88 in 10.0 mi SSW 13.8 mph 18.4 mph N/A   Clear
5:35 PM 78.1 °F 34.5 °F 21% 29.88 in 10.0 mi SSW 10.4 mph - N/A   Clear
5:55 PM 75.7 °F 34.9 °F 23% 29.88 in 10.0 mi South 9.2 mph - N/A   Clear
6:15 PM 73.8 °F 35.4 °F 25% 29.89 in 10.0 mi South 9.2 mph - N/A   Clear
6:35 PM 71.6 °F 35.8 °F 27% 29.89 in 10.0 mi South 6.9 mph - N/A   Clear
6:55 PM 69.4 °F 37.0 °F 31% 29.90 in 10.0 mi South 8.1 mph - N/A   Clear
7:15 PM 69.3 °F 39.4 °F 34% 29.91 in 10.0 mi South 8.1 mph - N/A   Clear
7:35 PM 69.8 °F 40.6 °F 35% 29.91 in 10.0 mi South 9.2 mph - N/A   Clear
7:55 PM 69.3 °F 41.4 °F 36% 29.91 in 10.0 mi South 9.2 mph - N/A   Clear
8:15 PM 68.9 °F 43.3 °F 40% 29.92 in 10.0 mi South 10.4 mph - N/A   Clear
8:35 PM 68.9 °F 46.2 °F 44% 29.92 in 10.0 mi South 15.0 mph 21.9 mph N/A   Clear
8:55 PM 68.7 °F 48.2 °F 48% 29.93 in 10.0 mi South 11.5 mph - N/A   Clear
9:15 PM 67.5 °F 49.3 °F 52% 29.94 in 10.0 mi South 10.4 mph - N/A   Clear
9:35 PM 67.1 °F 52.0 °F 58% 29.93 in 10.0 mi South 13.8 mph 18.4 mph N/A   Clear
9:55 PM 66.9 °F 53.1 °F 61% 29.93 in 10.0 mi South 12.7 mph - N/A   Clear
10:15 PM 66.4 °F 53.2 °F 63% 29.93 in 10.0 mi South 10.4 mph 18.4 mph N/A   Clear
10:35 PM 65.5 °F 53.6 °F 65% 29.93 in 10.0 mi South 12.7 mph - N/A   Clear
10:55 PM 65.1 °F 54.1 °F 68% 29.93 in 10.0 mi South 12.7 mph 17.3 mph N/A   Clear
11:15 PM 64.9 °F 54.5 °F 69% 29.93 in 10.0 mi South 13.8 mph 17.3 mph N/A   Clear
11:35 PM 64.8 °F 54.5 °F 69% 29.92 in 10.0 mi South 11.5 mph - N/A   Clear
11:55 PM 64.2 °F 54.5 °F 71% 29.91 in 10.0 mi South 12.7 mph - N/A   Clear